Forside
METAR-TAF:

METAR-TAF

Lufthavne :

Mackay, Australien

Breddekreds: 21-10-18S, længdekreds: 149-10-47E, højde: 6 m

Aktuelle vejr

Denne rapport blev lavet for 40 minutter siden, kl. 01:00 UTC
Vind 9 kt fra østsydøst
Temperatur 30°C
Fugtighed 70%
Tryk 1006 hPa
Sigt 10 km eller mere

METAR: YBMK 210100Z AUTO 11009KT 9999 // NCD 30/24 Q1006

Tid: 11:40 (01:40 UTC)


TAF: fraværende

Vejrobservationer og prognoser fra mere end 4000 lufthavne (METAR og TAF).

De gule og røde prikker repræsenterer de meteorologiske stationer.

Flyt musen over at se navnet på stationen.

Så klik over at se vejr observationer og prognoser.

At skifte det kort: Klik på de grønne knapper med et sort kors for at zoome ind; på den grønne knap med en bindestreg for at zoome ud; eller på de grønne pile for tilstødende kort.


METAR-TAF: